Location: Black Creek
(40.9000°S, 175.5500°E)
Time: 03:25:52
(UTC+00:00)

Lacrosse 5 rocket - Pass Details

Date: 04 August 2024
Orbit: 434 x 569 km, 57.0° (Epoch: 07 September)

Event Time Altitude Azimuth Distance (km) Brightness Sun altitude
Exits shadow 18:34:22 - 300° (WNW) 2,494 4.2 -9.1°
Reaches altitude 10° 18:35:58 10° 295° (WNW) 1,877 3.6 -8.8°
Maximum altitude 18:40:06 47° 220° (SW) 750 1.7 -8.0°
Drops below altitude 10° 18:44:07 10° 145° (SE) 1,826 4.2 -7.3°
Sets 18:46:22 0° 139° (SE) 2,697 5.2 -6.9°
